FW6124 Bellingham WA US current weather conditions

sailwx.info

Wind from 251 at 0 knots gusting 5

Air temperature 7.2° C
Dewpoint 6.3° C

Last reported at 2019-Nov-19 15:00 UTC.
Time now 2019-Nov-19 15:32 UTC

Location: N 48°45' W 122°24'.
View on Google Maps.

See reports from other nearby stations

  
Tides and Currents Weather Stations Pressure Air Temp Water Temp Dewpoint Dewpoint Depression Visibility Wind Speed Wind Dir Waves Ship Positions
date/time (UTC)wind fromknots sea level pressurealtimeterstation pressurevisibilityair tempwater tempwave heightnotes
2019-Nov-19 15:00 251 0 gusting 5 7.2
2019-Nov-19 14:45 239 7.8
2019-Nov-19 14:31 261 7.8
2019-Nov-19 14:15 242 7.8
2019-Nov-19 14:00 259 7.8
2019-Nov-19 13:45 247 7.8
2019-Nov-19 13:30 236 7.8
2019-Nov-19 13:15 229 7.8
2019-Nov-19 13:00 227 7.8
2019-Nov-19 12:46 234 7.8
2019-Nov-19 12:15 298 7.8
2019-Nov-19 12:00 326 7.8
2019-Nov-19 11:45 325 7.8
2019-Nov-19 11:30 318 7.8
2019-Nov-19 11:15 041 8.3
2019-Nov-19 11:00 275 8.3
2019-Nov-19 10:45 304 8.3
2019-Nov-19 10:30 248 8.3
2019-Nov-19 10:19 291 8.3
2019-Nov-19 10:01 225 1 gusting 4 8.3
2019-Nov-19 09:46 246 0 gusting 5 8.3
2019-Nov-19 09:32 250 8.3
2019-Nov-19 09:16 294 8.3
2019-Nov-19 09:01 278 8.3
2019-Nov-19 08:46 278 8.3
2019-Nov-19 08:32 259 0 gusting 1 8.3
2019-Nov-19 08:16 235 8.3
2019-Nov-19 08:01 235 8.3
2019-Nov-19 07:46 235 8.3
2019-Nov-19 07:31 235 8.3
2019-Nov-19 07:16 269 8.3
2019-Nov-19 07:01 246 8.3
2019-Nov-19 06:45 220 8.3
2019-Nov-19 06:31 275 8.3
2019-Nov-19 06:16 275 8.3
2019-Nov-19 06:01 269 8.9
2019-Nov-19 05:47 218 8.3
2019-Nov-19 05:31 217 8.3
2019-Nov-19 05:16 217 8.3
2019-Nov-19 05:01 156 8.3
2019-Nov-19 04:45 155 8.3
2019-Nov-19 04:31 123 8.3
2019-Nov-19 04:15 120 8.3
2019-Nov-19 04:01 210 8.3
2019-Nov-19 03:46 210 8.3
2019-Nov-19 03:31 209 8.9
2019-Nov-19 03:16 213 8.9
2019-Nov-19 03:00 213 8.9
2019-Nov-19 02:46 226 8.9
2019-Nov-19 02:16 230 0 gusting 3 8.3
2019-Nov-19 02:00 245 8.9
2019-Nov-19 01:46 250 8.9
2019-Nov-19 01:31 284 8.9
2019-Nov-19 01:15 107 8.9
2019-Nov-19 01:00 133 8.9
2019-Nov-19 00:45 080 8.9
2019-Nov-19 00:30 350 0 gusting 4 8.9
2019-Nov-19 00:15 103 8.9
2019-Nov-19 00:00 099 9.4
2019-Nov-18 23:45 076 9.4
2019-Nov-18 23:32 165 9.4
2019-Nov-18 23:16 196 9.4
2019-Nov-18 23:02 130 9.4
2019-Nov-18 22:47 119 9.4
2019-Nov-18 22:32 110 9.4
2019-Nov-18 22:16 119 9.4
2019-Nov-18 22:02 111 9.4
2019-Nov-18 21:46 061 9.4
2019-Nov-18 21:31 119 9.4
2019-Nov-18 21:15 111 9.4
2019-Nov-18 21:00 041 8.9
2019-Nov-18 20:45 317 8.9
2019-Nov-18 20:31 145 8.9
2019-Nov-18 20:15 213 8.9
2019-Nov-18 20:00 053 8.9
2019-Nov-18 19:45 053 8.3
2019-Nov-18 19:30 053 8.3
2019-Nov-18 19:15 225 8.3
2019-Nov-18 19:00 065 8.3
2019-Nov-18 18:45 066 8.3
2019-Nov-18 18:30 120 8.3
2019-Nov-18 18:16 155 8.3
2019-Nov-18 18:00 127 8.3
2019-Nov-18 17:45 094 8.3
2019-Nov-18 17:30 126 8.3
2019-Nov-18 17:15 110 7.8
2019-Nov-18 17:00 117 7.8
2019-Nov-18 16:45 134 7.8
2019-Nov-18 16:31 136 7.8
2019-Nov-18 16:30 136 7.8
2019-Nov-18 16:17 132 7.8
2019-Nov-18 16:02 205 7.8
2019-Nov-18 15:47 130 7.8
2019-Nov-18 15:31 152 7.2
2019-Nov-18 15:17 219 7.2
2019-Nov-18 15:01 220 7.2
2019-Nov-18 14:46 220 7.2
2019-Nov-18 14:31 220 7.8
2019-Nov-18 14:16 220 7.8
2019-Nov-18 14:01 220 7.8
2019-Nov-18 13:46 236 7.8
2019-Nov-18 13:31 236 7.8
2019-Nov-18 13:15 236 8.3
2019-Nov-18 13:01 238 7.8
2019-Nov-18 12:47 228 7.8
2019-Nov-18 12:31 219 7.8
2019-Nov-18 12:16 217 8.3
2019-Nov-18 12:01 216 8.3
2019-Nov-18 11:46 219 8.3
2019-Nov-18 11:30 219 8.3
2019-Nov-18 11:16 296 8.9
2019-Nov-18 11:01 296 8.9
2019-Nov-18 10:45 296 8.9
2019-Nov-18 10:31 298 8.9
2019-Nov-18 10:15 218 0 gusting 2 8.9
2019-Nov-18 10:00 216 8.9
2019-Nov-18 09:45 216 8.3
2019-Nov-18 09:30 216 8.3
2019-Nov-18 09:15 216 8.3
2019-Nov-18 09:00 213 0 gusting 2 8.3
2019-Nov-18 08:45 205 8.3
2019-Nov-18 08:30 205 7.8
2019-Nov-18 08:15 205 7.8
2019-Nov-18 08:01 205 7.2
2019-Nov-18 07:47 200 7.2
2019-Nov-18 07:31 200 7.2
2019-Nov-18 07:16 200 7.2
2019-Nov-18 07:01 200 7.8
2019-Nov-18 06:46 200 7.8
2019-Nov-18 06:31 200 7.8
2019-Nov-18 06:16 142 7.8
2019-Nov-18 06:02 163 8.3
2019-Nov-18 05:31 215 8.3
2019-Nov-18 05:16 219 0 gusting 3 8.3
2019-Nov-18 05:01 200 8.9
2019-Nov-18 04:46 188 8.9
2019-Nov-18 04:31 187 9.4
2019-Nov-18 04:16 214 9.4
2019-Nov-18 04:01 119 9.4
2019-Nov-18 03:45 172 9.4
2019-Nov-18 03:30 090 1 gusting 8 10.0
2019-Nov-18 03:16 061 10.0
2019-Nov-18 03:01 108 10.0
2019-Nov-18 02:46 113 0 gusting 4 10.0
2019-Nov-18 02:31 115 2 gusting 6 10.0
2019-Nov-18 02:15 112 1 gusting 11 10.0
2019-Nov-18 02:00 182 0 gusting 4 10.0
2019-Nov-18 01:45 113 1 gusting 9 10.0
2019-Nov-18 01:30 155 0 gusting 6 10.6
2019-Nov-18 01:15 084 0 gusting 8 10.6
2019-Nov-18 01:00 118 0 gusting 6 10.6
2019-Nov-18 00:45 139 0 gusting 13 11.1
2019-Nov-18 00:30 218 0 gusting 10 11.1
2019-Nov-18 00:15 145 3 gusting 17 11.7
2019-Nov-18 00:00 161 3 gusting 10 11.7
2019-Nov-17 23:45 159 5 gusting 14 12.2
2019-Nov-17 23:30 144 3 gusting 16 12.2
2019-Nov-17 23:15 177 0 gusting 9 12.8
2019-Nov-17 23:00 205 1 gusting 9 12.8
2019-Nov-17 22:45 114 2 gusting 12 13.3
2019-Nov-17 22:30 229 0 gusting 11 12.8
2019-Nov-17 22:15 163 1 gusting 7 13.3
2019-Nov-17 22:01 164 12.8
2019-Nov-17 21:47 116 12.8
2019-Nov-17 21:32 125 2 gusting 7 13.3
2019-Nov-17 21:17 109 4 gusting 9 13.3
2019-Nov-17 21:02 169 3 gusting 9 12.8
2019-Nov-17 20:46 216 0 gusting 12 12.2
2019-Nov-17 20:31 096 3 gusting 10 12.2
2019-Nov-17 20:17 119 2 gusting 9 11.7
2019-Nov-17 20:01 066 3 gusting 14 11.7
2019-Nov-17 19:46 043 0 gusting 7 11.7
2019-Nov-17 19:31 322 11.7
2019-Nov-17 19:16 118 2 gusting 11 11.7
2019-Nov-17 19:01 194 0 gusting 18 11.7
2019-Nov-17 18:46 207 2 gusting 19 11.7
2019-Nov-17 18:31 105 2 gusting 17 11.7
2019-Nov-17 18:15 013 4 gusting 21 11.7
2019-Nov-17 18:01 236 0 gusting 17 11.7
2019-Nov-17 17:47 171 4 gusting 15 11.1
2019-Nov-17 17:31 250 6 gusting 18 11.1
2019-Nov-17 17:16 138 7 gusting 19 11.1
2019-Nov-17 17:01 228 5 gusting 13 11.1
2019-Nov-17 16:45 208 4 gusting 13 11.1
2019-Nov-17 16:30 093 4 gusting 15 11.1
2019-Nov-17 16:15 136 3 gusting 18 11.1
2019-Nov-17 16:01 328 4 gusting 14 11.1
2019-Nov-17 15:45 190 6 gusting 17 11.1
2019-Nov-17 15:31 167 4 gusting 13 11.1
2019-Nov-17 15:15 124 6 gusting 19 11.1
2019-Nov-17 15:01 117 2 gusting 9 11.1